International Skating Union - Official Site

ISU World Cup Berlin
January 27 - 29, 2017

Draw | Lap Times | Index | World Cup

Referee: Bert  TIMMERMAN  (NED)
Starter: Roland  STEENBECK  (GER)
StartTime: EndTime: Air Temp: Ice Temp: Humidity:
14:10 15:13 14.3℃ -6.5℃ 30%
Result 5000m Men Division A
Rankings as of Jan 29 2017 5:06PM
Rank: No.: Name: Nation: Time: Behind: Points:
1 10 Ted-Jan  Bloemen CAN CAN 6:15.84200m - 18.74 - (18.7)
600m - 47.79 - (29.0)
1000m - 1:17.11 - (29.3)
1400m - 1:46.78 - (29.6)
1800m - 2:16.63 - (29.8)
2200m - 2:46.20 - (29.5)
2600m - 3:15.86 - (29.6)
3000m - 3:45.60 - (29.7)
3400m - 4:15.56 - (29.9)
3800m - 4:45.44 - (29.8)
4200m - 5:15.15 - (29.7)
4600m - 5:45.43 - (30.2)
5000m - 6:15.84 - (30.4)
100
2 94 Peter  Michael NZL NZL 6:16.65200m - 19.16 - (19.1)
600m - 48.11 - (28.9)
1000m - 1:18.80 - (30.6)
1400m - 1:48.89 - (30.0)
1800m - 2:18.52 - (29.6)
2200m - 2:48.53 - (30.0)
2600m - 3:18.58 - (30.0)
3000m - 3:48.50 - (29.9)
3400m - 4:18.44 - (29.9)
3800m - 4:48.48 - (30.0)
4200m - 5:18.18 - (29.7)
4600m - 5:47.74 - (29.5)
5000m - 6:16.65 - (28.9)
0.81 80
3 69 Jorrit  Bergsma NED NED 6:17.99200m - 19.21 - (19.2)
600m - 48.47 - (29.2)
1000m - 1:18.00 - (29.5)
1400m - 1:47.80 - (29.8)
1800m - 2:17.46 - (29.6)
2200m - 2:46.94 - (29.4)
2600m - 3:16.60 - (29.6)
3000m - 3:46.31 - (29.7)
3400m - 4:16.02 - (29.7)
3800m - 4:46.02 - (30.0)
4200m - 5:16.22 - (30.2)
4600m - 5:46.94 - (30.7)
5000m - 6:17.99 - (31.0)
2.15 70
4 72 Douwe  de Vries NED NED 6:18.37200m - 18.82 - (18.8)
600m - 47.86 - (29.0)
1000m - 1:17.76 - (29.9)
1400m - 1:47.85 - (30.0)
1800m - 2:17.62 - (29.7)
2200m - 2:47.47 - (29.8)
2600m - 3:17.40 - (29.9)
3000m - 3:47.29 - (29.8)
3400m - 4:17.10 - (29.8)
3800m - 4:47.15 - (30.0)
4200m - 5:17.37 - (30.2)
4600m - 5:47.80 - (30.4)
5000m - 6:18.37 - (30.5)
2.53 60
5 34 Patrick  Beckert GER GER 6:19.34200m - 19.72 - (19.7)
600m - 48.61 - (28.8)
1000m - 1:18.56 - (29.9)
1400m - 1:48.41 - (29.8)
1800m - 2:18.19 - (29.7)
2200m - 2:48.02 - (29.8)
2600m - 3:17.99 - (29.9)
3000m - 3:48.13 - (30.1)
3400m - 4:18.43 - (30.3)
3800m - 4:48.74 - (30.3)
4200m - 5:18.96 - (30.2)
4600m - 5:49.15 - (30.1)
5000m - 6:19.34 - (30.1)
3.50 50
6 79 Patrick  Roest NED NED 6:19.37200m - 18.78 - (18.7)
600m - 48.52 - (29.7)
1000m - 1:18.44 - (29.9)
1400m - 1:48.82 - (30.3)
1800m - 2:19.19 - (30.3)
2200m - 2:49.83 - (30.6)
2600m - 3:20.43 - (30.6)
3000m - 3:50.83 - (30.4)
3400m - 4:20.97 - (30.1)
3800m - 4:50.75 - (29.7)
4200m - 5:20.25 - (29.5)
4600m - 5:49.79 - (29.5)
5000m - 6:19.37 - (29.5)
3.53 45
7 90 Sverre Lunde  Pedersen NOR NOR 6:19.66200m - 18.83 - (18.8)
600m - 48.34 - (29.5)
1000m - 1:18.34 - (30.0)
1400m - 1:48.21 - (29.8)
1800m - 2:18.32 - (30.1)
2200m - 2:48.46 - (30.1)
2600m - 3:18.48 - (30.0)
3000m - 3:48.49 - (30.0)
3400m - 4:18.62 - (30.1)
3800m - 4:48.61 - (29.9)
4200m - 5:18.56 - (29.9)
4600m - 5:48.77 - (30.2)
5000m - 6:19.66 - (30.8)
3.82 40
8 6 Bart  Swings BEL BEL 6:22.03200m - 18.68 - (18.6)
600m - 47.87 - (29.1)
1000m - 1:17.62 - (29.7)
1400m - 1:47.70 - (30.0)
1800m - 2:17.72 - (30.0)
2200m - 2:47.84 - (30.1)
2600m - 3:18.07 - (30.2)
3000m - 3:48.39 - (30.3)
3400m - 4:18.65 - (30.2)
3800m - 4:48.95 - (30.3)
4200m - 5:19.63 - (30.6)
4600m - 5:50.54 - (30.9)
5000m - 6:22.03 - (31.4)
6.19 35
9 45 Andrea  Giovannini ITA ITA 6:23.67200m - 18.83 - (18.8)
600m - 47.92 - (29.0)
1000m - 1:18.01 - (30.0)
1400m - 1:48.00 - (29.9)
1800m - 2:18.07 - (30.0)
2200m - 2:48.26 - (30.1)
2600m - 3:18.52 - (30.2)
3000m - 3:48.76 - (30.2)
3400m - 4:19.24 - (30.4)
3800m - 4:49.82 - (30.5)
4200m - 5:21.01 - (31.1)
4600m - 5:52.20 - (31.1)
5000m - 6:23.67 - (31.4)
7.83 30
10 49 Nicola  Tumolero ITA ITA 6:26.79200m - 19.36 - (19.3)
600m - 49.70 - (30.3)
1000m - 1:20.52 - (30.8)
1400m - 1:50.93 - (30.4)
1800m - 2:21.37 - (30.4)
2200m - 2:52.10 - (30.7)
2600m - 3:22.83 - (30.7)
3000m - 3:53.52 - (30.6)
3400m - 4:24.22 - (30.7)
3800m - 4:54.95 - (30.7)
4200m - 5:25.40 - (30.4)
4600m - 5:56.02 - (30.6)
5000m - 6:26.79 - (30.7)
10.95 25
11 44 Davide  Ghiotto ITA ITA 6:27.73200m - 19.53 - (19.5)
600m - 49.14 - (29.6)
1000m - 1:19.19 - (30.0)
1400m - 1:49.08 - (29.8)
1800m - 2:19.13 - (30.0)
2200m - 2:49.44 - (30.3)
2600m - 3:20.00 - (30.5)
3000m - 3:50.78 - (30.7)
3400m - 4:21.88 - (31.1)
3800m - 4:53.34 - (31.4)
4200m - 5:24.83 - (31.4)
4600m - 5:56.46 - (31.6)
5000m - 6:27.73 - (31.2)
11.89 21
12 61 Ryosuke  Tsuchiya JPN JPN 6:28.97200m - 19.27 - (19.2)
600m - 49.24 - (29.9)
1000m - 1:19.75 - (30.5)
1400m - 1:50.59 - (30.8)
1800m - 2:21.34 - (30.7)
2200m - 2:52.07 - (30.7)
2600m - 3:22.60 - (30.5)
3000m - 3:53.52 - (30.9)
3400m - 4:24.21 - (30.6)
3800m - 4:55.19 - (30.9)
4200m - 5:26.38 - (31.1)
4600m - 5:57.71 - (31.3)
5000m - 6:28.97 - (31.2)
13.13 18
13 111 Danila  Semerikov RUS RUS 6:30.73200m - 19.63 - (19.6)
600m - 49.88 - (30.2)
1000m - 1:20.97 - (31.0)
1400m - 1:52.08 - (31.1)
1800m - 2:22.80 - (30.7)
2200m - 2:53.58 - (30.7)
2600m - 3:24.64 - (31.0)
3000m - 3:55.51 - (30.8)
3400m - 4:26.51 - (31.0)
3800m - 4:57.30 - (30.7)
4200m - 5:28.08 - (30.7)
4600m - 5:59.11 - (31.0)
5000m - 6:30.73 - (31.6)
14.89 16
14 36 Moritz  Geisreiter GER GER 6:31.17200m - 18.93 - (18.9)
600m - 47.96 - (29.0)
1000m - 1:17.95 - (29.9)
1400m - 1:48.37 - (30.4)
1800m - 2:18.89 - (30.5)
2200m - 2:49.78 - (30.8)
2600m - 3:20.75 - (30.9)
3000m - 3:51.83 - (31.0)
3400m - 4:23.39 - (31.5)
3800m - 4:54.99 - (31.6)
4200m - 5:26.97 - (31.9)
4600m - 5:59.21 - (32.2)
5000m - 6:31.17 - (31.9)
15.33 14
15 119 Nils  van der Poel SWE SWE 6:31.52200m - 19.30 - (19.3)
600m - 49.10 - (29.8)
1000m - 1:19.02 - (29.9)
1400m - 1:49.26 - (30.2)
1800m - 2:19.82 - (30.5)
2200m - 2:50.90 - (31.0)
2600m - 3:22.47 - (31.5)
3000m - 3:54.21 - (31.7)
3400m - 4:25.85 - (31.6)
3800m - 4:57.83 - (31.9)
4200m - 5:29.33 - (31.5)
4600m - 6:00.69 - (31.3)
5000m - 6:31.52 - (30.8)
15.68 12
16 62 Shane  Williamson JPN JPN 6:32.50200m - 18.80 - (18.8)
600m - 48.61 - (29.8)
1000m - 1:18.85 - (30.2)
1400m - 1:49.50 - (30.6)
1800m - 2:20.53 - (31.0)
2200m - 2:51.86 - (31.3)
2600m - 3:23.37 - (31.5)
3000m - 3:54.79 - (31.4)
3400m - 4:26.21 - (31.4)
3800m - 4:57.50 - (31.2)
4200m - 5:28.80 - (31.3)
4600m - 6:00.40 - (31.6)
5000m - 6:32.50 - (32.1)
16.66 10